Location: ?????????
(53.2086°N, 54.0693°E)
Time: 04:58:31
(UTC+00:00)

Meteor 1-5 Rocket - Pass Details

Date: 08 December 2019
Orbit: 788 x 916 km, 81.2° (Epoch: 21 January)

Event Time Altitude Azimuth Distance (km) Brightness Sun altitude
Rises 13:39:41 0° 345° (NNW) 3,454 7.3 -12.9°
Reaches altitude 10° 13:42:10 10° 345° (NNW) 2,493 6.6 -13.2°
Maximum altitude 13:47:49 83° 259° (W) 844 4.2 -14.0°
Drops below altitude 10° 13:53:14 10° 172° (S) 2,395 6.7 -14.8°
Sets 13:55:34 0° 172° (S) 3,307 7.4 -15.1°
